WZZ98QU EKCH-EPWA

Flight info

Callsign WZZ98QU
Flight time 1h 3m
Altitude 35000
Route SIMEG Z491 TELMO DCT KOLOB N195 ELPOL Y100 MALOX/N0364F230 L621 GRUDA N191 SORIX
Aircraft A21N/M-SDE2E3FGHIRWXY/LB1

Departure

Time 2026-05-04 19:57
Airport Copenhagen Kastrup Airport (EKCH)

Arrival

Time 2026-05-04 21:00
Airport Warsaw Chopin Airport (EPWA)
Time Latitude Longitude Altitude Speed Heading
2026-05-04 19:17 55.62894 12.63805 22 ft 0 kts 10°
2026-05-04 19:44 55.62872 12.63795 22 ft 4 kts 31°
2026-05-04 19:44 55.62857 12.63765 26 ft 4 kts 81°
2026-05-04 19:44 55.62859 12.63728 23 ft 4 kts 96°
2026-05-04 19:44 55.62859 12.63680 22 ft 4 kts 86°
2026-05-04 19:45 55.62858 12.63667 22 ft 0 kts 86°
2026-05-04 19:49 55.62858 12.63669 22 ft 1 kts 86°
2026-05-04 19:49 55.62857 12.63719 24 ft 7 kts 100°
2026-05-04 19:49 55.62843 12.63828 22 ft 11 kts 104°
2026-05-04 19:50 55.62808 12.63948 23 ft 9 kts 154°
2026-05-04 19:50 55.62744 12.63924 22 ft 11 kts 212°
2026-05-04 19:50 55.62677 12.63860 22 ft 11 kts 184°
2026-05-04 19:50 55.62616 12.63947 22 ft 13 kts 123°
2026-05-04 19:51 55.62555 12.64111 22 ft 18 kts 123°
2026-05-04 19:51 55.62479 12.64315 22 ft 21 kts 128°
2026-05-04 19:51 55.62418 12.64438 22 ft 8 kts 150°
2026-05-04 19:51 55.62359 12.64436 22 ft 7 kts 195°
2026-05-04 19:52 55.62349 12.64431 22 ft 0 kts 195°
2026-05-04 19:53 55.62341 12.64427 22 ft 3 kts 195°
2026-05-04 19:53 55.62305 12.64409 23 ft 8 kts 195°
2026-05-04 19:53 55.62237 12.64374 21 ft 12 kts 199°
2026-05-04 19:54 55.62142 12.64299 22 ft 18 kts 205°
2026-05-04 19:54 55.62026 12.64202 22 ft 19 kts 205°
2026-05-04 19:54 55.61900 12.64096 22 ft 19 kts 206°
2026-05-04 19:54 55.61812 12.63984 22 ft 13 kts 220°
2026-05-04 19:55 55.61749 12.63937 22 ft 11 kts 178°
2026-05-04 19:55 55.61683 12.63945 22 ft 10 kts 175°
2026-05-04 19:55 55.61607 12.63954 22 ft 12 kts 176°
2026-05-04 19:55 55.61525 12.63918 23 ft 14 kts 218°
2026-05-04 19:56 55.61484 12.63856 22 ft 4 kts 219°
2026-05-04 19:56 55.61346 12.63642 22 ft 62 kts 221°
2026-05-04 19:56 55.60823 12.62834 23 ft 133 kts 221°
2026-05-04 19:56 55.60006 12.61577 130 ft 171 kts 220°
2026-05-04 19:57 55.59110 12.60232 809 ft 168 kts 223°
2026-05-04 19:57 55.58208 12.58848 1393 ft 179 kts 225°
2026-05-04 19:57 55.57223 12.57323 1905 ft 196 kts 225°
2026-05-04 19:57 55.56170 12.55684 2555 ft 207 kts 222°
2026-05-04 19:58 55.54860 12.54449 3089 ft 230 kts 193°
2026-05-04 19:58 55.53162 12.54396 3483 ft 254 kts 187°
2026-05-04 19:58 55.51445 12.53551 4219 ft 258 kts 204°
2026-05-04 19:58 55.49791 12.52318 5222 ft 257 kts 207°
2026-05-04 19:59 55.48121 12.51267 6298 ft 256 kts 196°
2026-05-04 19:59 55.46290 12.50934 6897 ft 272 kts 186°
2026-05-04 19:59 55.44379 12.50849 7702 ft 276 kts 185°
2026-05-04 19:59 55.42453 12.50801 8288 ft 278 kts 185°
2026-05-04 20:00 55.40512 12.50767 8627 ft 279 kts 185°
2026-05-04 20:00 55.38564 12.50737 8912 ft 281 kts 185°
2026-05-04 20:00 55.36603 12.50710 9188 ft 282 kts 185°
2026-05-04 20:00 55.34636 12.50686 9531 ft 283 kts 185°
2026-05-04 20:01 55.32659 12.50672 10008 ft 286 kts 183°
2026-05-04 20:01 55.30621 12.51361 10367 ft 313 kts 161°
2026-05-04 20:01 55.28775 12.53636 10696 ft 339 kts 135°
2026-05-04 20:01 55.27539 12.57222 11301 ft 352 kts 111°
2026-05-04 20:02 55.27116 12.61471 11991 ft 358 kts 91°
2026-05-04 20:02 55.27193 12.65853 12712 ft 362 kts 88°
2026-05-04 20:02 55.27258 12.70303 13428 ft 367 kts 90°
2026-05-04 20:02 55.27239 12.74806 14087 ft 372 kts 92°
2026-05-04 20:03 55.27160 12.79369 14729 ft 375 kts 93°
2026-05-04 20:03 55.27048 12.83954 15402 ft 379 kts 94°
2026-05-04 20:03 55.26920 12.88587 16064 ft 382 kts 94°
2026-05-04 20:03 55.26785 12.93264 16734 ft 385 kts 94°
2026-05-04 20:04 55.26645 12.97975 17387 ft 389 kts 94°
2026-05-04 20:04 55.26501 13.02731 18043 ft 393 kts 94°
2026-05-04 20:04 55.26357 13.07541 18597 ft 397 kts 94°
2026-05-04 20:04 55.26206 13.12401 18900 ft 400 kts 94°
2026-05-04 20:05 55.26055 13.17274 19100 ft 401 kts 94°
2026-05-04 20:05 55.25901 13.22173 19611 ft 404 kts 94°
2026-05-04 20:05 55.25744 13.27097 20188 ft 406 kts 94°
2026-05-04 20:05 55.25584 13.32058 20750 ft 408 kts 94°
2026-05-04 20:06 55.25421 13.37041 21253 ft 412 kts 94°
2026-05-04 20:06 55.25253 13.42096 21726 ft 417 kts 94°
2026-05-04 20:06 55.25045 13.47183 22215 ft 421 kts 98°
2026-05-04 20:06 55.24334 13.52140 22693 ft 420 kts 115°
2026-05-04 20:07 55.23026 13.56714 23202 ft 420 kts 122°
2026-05-04 20:07 55.21581 13.61190 23670 ft 424 kts 123°
2026-05-04 20:07 55.20120 13.65693 24078 ft 428 kts 123°
2026-05-04 20:07 55.18654 13.70253 24475 ft 431 kts 123°
2026-05-04 20:08 55.17189 13.74852 24867 ft 435 kts 123°
2026-05-04 20:08 55.15733 13.79440 25239 ft 439 kts 123°
2026-05-04 20:08 55.14223 13.84194 25621 ft 443 kts 123°
2026-05-04 20:08 55.12723 13.88912 25969 ft 447 kts 124°
2026-05-04 20:09 55.11201 13.93681 26321 ft 451 kts 124°
2026-05-04 20:09 55.09686 13.98419 26664 ft 454 kts 124°
2026-05-04 20:09 55.08139 14.03251 27024 ft 458 kts 124°
2026-05-04 20:09 55.06578 14.08113 27374 ft 461 kts 124°
2026-05-04 20:10 55.05058 14.13075 27715 ft 467 kts 121°
2026-05-04 20:10 55.03644 14.18188 28054 ft 470 kts 120°
2026-05-04 20:10 55.02223 14.23351 28391 ft 474 kts 121°
2026-05-04 20:10 55.00791 14.28540 28716 ft 477 kts 121°
2026-05-04 20:11 54.99348 14.33756 28993 ft 480 kts 121°
2026-05-04 20:11 54.97887 14.39010 29233 ft 485 kts 121°
2026-05-04 20:11 54.96410 14.44313 29514 ft 489 kts 121°
2026-05-04 20:11 54.94922 14.49650 29797 ft 492 kts 121°
2026-05-04 20:12 54.93423 14.55014 30079 ft 495 kts 121°
2026-05-04 20:12 54.91915 14.60396 30369 ft 496 kts 121°
2026-05-04 20:12 54.90399 14.65792 30681 ft 497 kts 121°
2026-05-04 20:12 54.88879 14.71188 30979 ft 497 kts 121°
2026-05-04 20:13 54.87357 14.76572 31384 ft 496 kts 121°
2026-05-04 20:13 54.85844 14.81930 31807 ft 493 kts 121°
2026-05-04 20:13 54.84336 14.87249 32220 ft 490 kts 121°
2026-05-04 20:13 54.82832 14.92538 32607 ft 488 kts 121°
2026-05-04 20:14 54.81268 14.97738 32969 ft 485 kts 123°
2026-05-04 20:14 54.79677 15.02873 33330 ft 483 kts 123°
2026-05-04 20:14 54.78087 15.07979 33670 ft 481 kts 123°
2026-05-04 20:14 54.76499 15.13068 33995 ft 479 kts 123°
2026-05-04 20:15 54.74914 15.18139 34258 ft 478 kts 123°
2026-05-04 20:15 54.73330 15.23188 34472 ft 477 kts 123°
2026-05-04 20:15 54.71748 15.28232 34706 ft 477 kts 123°
2026-05-04 20:15 54.70166 15.33268 34915 ft 476 kts 123°
2026-05-04 20:16 54.68579 15.38304 35002 ft 477 kts 123°
2026-05-04 20:16 54.65406 15.48341 34977 ft 476 kts 123°
2026-05-04 20:17 54.62219 15.58344 34966 ft 476 kts 123°
2026-05-04 20:17 54.58819 15.67993 34968 ft 472 kts 129°
2026-05-04 20:18 54.55121 15.77329 34964 ft 472 kts 129°
2026-05-04 20:18 54.51417 15.86658 34969 ft 472 kts 129°
2026-05-04 20:19 54.47711 15.95969 34971 ft 472 kts 129°
2026-05-04 20:19 54.44598 16.03760 34947 ft 472 kts 129°
2026-05-04 20:20 54.40895 16.12995 34969 ft 473 kts 129°
2026-05-04 20:20 54.37158 16.22279 34953 ft 473 kts 129°
2026-05-04 20:21 54.33390 16.31599 34971 ft 473 kts 129°
2026-05-04 20:21 54.27835 16.45478 34973 ft 475 kts 124°
2026-05-04 20:22 54.26431 16.50624 34972 ft 481 kts 111°
2026-05-04 20:22 54.25680 16.56221 34974 ft 486 kts 98°
2026-05-04 20:22 54.25218 16.67762 34979 ft 487 kts 94°
2026-05-04 20:23 54.24789 16.79296 34970 ft 486 kts 95°
2026-05-04 20:23 54.23414 16.90493 34967 ft 479 kts 117°
2026-05-04 20:24 54.20065 17.00220 34980 ft 474 kts 127°
2026-05-04 20:24 54.16491 17.09662 34982 ft 474 kts 127°
2026-05-04 20:25 54.12965 17.19159 34966 ft 474 kts 126°
2026-05-04 20:25 54.09443 17.28652 34978 ft 474 kts 126°
2026-05-04 20:26 54.05904 17.38136 34977 ft 474 kts 127°
2026-05-04 20:26 54.02361 17.47593 34976 ft 474 kts 127°
2026-05-04 20:27 53.98811 17.57037 34976 ft 474 kts 127°
2026-05-04 20:27 53.95254 17.66469 34951 ft 474 kts 126°
2026-05-04 20:28 53.91701 17.75854 34971 ft 472 kts 126°
2026-05-04 20:28 53.88141 17.85217 34975 ft 472 kts 127°
2026-05-04 20:29 53.84575 17.94568 34968 ft 472 kts 127°
2026-05-04 20:29 53.81006 18.03907 34968 ft 472 kts 127°
2026-05-04 20:30 53.77432 18.13210 34963 ft 471 kts 127°
2026-05-04 20:30 53.73847 18.22498 34966 ft 471 kts 127°
2026-05-04 20:31 53.70259 18.31767 34963 ft 471 kts 127°
2026-05-04 20:31 53.66663 18.41015 34957 ft 471 kts 127°
2026-05-04 20:32 53.63063 18.50243 34949 ft 471 kts 127°
2026-05-04 20:32 53.59461 18.59439 34958 ft 470 kts 127°
2026-05-04 20:33 53.55882 18.68544 34956 ft 470 kts 127°
2026-05-04 20:33 53.52144 18.77514 34923 ft 465 kts 136°
2026-05-04 20:34 53.47306 18.84462 34953 ft 455 kts 148°
2026-05-04 20:34 53.42239 18.90838 34941 ft 455 kts 148°
2026-05-04 20:35 53.37199 18.97254 34948 ft 455 kts 147°
2026-05-04 20:35 53.32172 19.03665 34949 ft 454 kts 147°
2026-05-04 20:36 53.27152 19.10056 34875 ft 449 kts 148°
2026-05-04 20:36 53.24685 19.13187 34501 ft 442 kts 148°
2026-05-04 20:36 53.22249 19.16272 34049 ft 438 kts 148°
2026-05-04 20:37 53.19832 19.19327 33519 ft 434 kts 148°
2026-05-04 20:37 53.17431 19.22348 32947 ft 430 kts 148°
2026-05-04 20:37 53.15048 19.25333 32402 ft 428 kts 148°
2026-05-04 20:37 53.12677 19.28300 31875 ft 425 kts 148°
2026-05-04 20:38 53.10325 19.31243 31362 ft 421 kts 147°
2026-05-04 20:38 53.07990 19.34159 30847 ft 418 kts 147°
2026-05-04 20:38 53.05667 19.37058 30271 ft 416 kts 147°
2026-05-04 20:38 53.03359 19.39934 29620 ft 415 kts 147°
2026-05-04 20:39 53.01047 19.42812 28925 ft 414 kts 147°
2026-05-04 20:39 52.98747 19.45671 28240 ft 413 kts 147°
2026-05-04 20:39 52.96451 19.48521 27572 ft 411 kts 147°
2026-05-04 20:39 52.94167 19.51364 26919 ft 410 kts 147°
2026-05-04 20:40 52.91893 19.54209 26281 ft 409 kts 147°
2026-05-04 20:40 52.89629 19.57041 25642 ft 407 kts 147°
2026-05-04 20:40 52.87376 19.59854 25084 ft 403 kts 147°
2026-05-04 20:40 52.85152 19.62626 24605 ft 398 kts 147°
2026-05-04 20:41 52.82950 19.65368 24105 ft 394 kts 147°
2026-05-04 20:41 52.80770 19.68076 23617 ft 390 kts 147°
2026-05-04 20:41 52.78611 19.70757 23072 ft 386 kts 147°
2026-05-04 20:41 52.76476 19.73404 22549 ft 381 kts 147°
2026-05-04 20:42 52.74368 19.76013 22046 ft 377 kts 147°
2026-05-04 20:42 52.72287 19.78586 21550 ft 372 kts 147°
2026-05-04 20:42 52.70246 19.81193 21061 ft 370 kts 142°
2026-05-04 20:42 52.68622 19.84394 20615 ft 370 kts 125°
2026-05-04 20:43 52.67340 19.88023 20312 ft 362 kts 122°
2026-05-04 20:43 52.66134 19.91609 20037 ft 354 kts 122°
2026-05-04 20:43 52.64934 19.95142 19784 ft 353 kts 122°
2026-05-04 20:43 52.63724 19.98656 19539 ft 352 kts 123°
2026-05-04 20:44 52.62513 20.02146 19296 ft 350 kts 123°
2026-05-04 20:44 52.61303 20.05618 19052 ft 349 kts 123°
2026-05-04 20:44 52.60097 20.09066 18823 ft 348 kts 123°
2026-05-04 20:44 52.58892 20.12509 18583 ft 346 kts 123°
2026-05-04 20:45 52.57692 20.15933 18316 ft 344 kts 123°
2026-05-04 20:45 52.56502 20.19326 17939 ft 341 kts 123°
2026-05-04 20:45 52.55322 20.22680 17535 ft 338 kts 123°
2026-05-04 20:45 52.54148 20.26016 17118 ft 336 kts 123°
2026-05-04 20:46 52.52979 20.29332 16720 ft 335 kts 123°
2026-05-04 20:46 52.51814 20.32629 16336 ft 333 kts 123°
2026-05-04 20:46 52.50652 20.35921 15952 ft 332 kts 123°
2026-05-04 20:46 52.49511 20.39206 15594 ft 331 kts 123°
2026-05-04 20:47 52.48377 20.42484 15237 ft 330 kts 123°
2026-05-04 20:47 52.47244 20.45747 14861 ft 330 kts 123°
2026-05-04 20:47 52.46106 20.49014 14472 ft 329 kts 123°
2026-05-04 20:47 52.44980 20.52247 14092 ft 323 kts 124°
2026-05-04 20:48 52.43863 20.55444 13710 ft 323 kts 124°
2026-05-04 20:48 52.42741 20.58637 13307 ft 323 kts 124°
2026-05-04 20:48 52.41626 20.61804 12915 ft 318 kts 124°
2026-05-04 20:48 52.40546 20.64885 12536 ft 315 kts 124°
2026-05-04 20:49 52.39454 20.67997 12148 ft 315 kts 124°
2026-05-04 20:49 52.38361 20.71108 11765 ft 315 kts 124°
2026-05-04 20:49 52.37273 20.74202 11418 ft 313 kts 124°
2026-05-04 20:49 52.36188 20.77278 11067 ft 310 kts 124°
2026-05-04 20:50 52.35122 20.80298 10729 ft 304 kts 124°
2026-05-04 20:50 52.34067 20.83282 10401 ft 302 kts 123°
2026-05-04 20:50 52.33015 20.86251 10073 ft 301 kts 123°
2026-05-04 20:50 52.31965 20.89210 9792 ft 300 kts 123°
2026-05-04 20:51 52.30923 20.92146 9440 ft 298 kts 123°
2026-05-04 20:51 52.29888 20.95060 9083 ft 296 kts 123°
2026-05-04 20:51 52.28855 20.97965 8736 ft 295 kts 123°
2026-05-04 20:51 52.27819 21.00856 8126 ft 295 kts 125°
2026-05-04 20:52 52.26506 21.03394 7406 ft 292 kts 146°
2026-05-04 20:52 52.24781 21.05095 6704 ft 290 kts 155°
2026-05-04 20:52 52.22977 21.06591 5984 ft 292 kts 156°
2026-05-04 20:52 52.21187 21.08077 5542 ft 283 kts 155°
2026-05-04 20:53 52.19482 21.09511 5239 ft 270 kts 155°
2026-05-04 20:53 52.17855 21.10894 4961 ft 257 kts 155°
2026-05-04 20:53 52.16324 21.12200 4773 ft 240 kts 155°
2026-05-04 20:53 52.14854 21.13457 4566 ft 239 kts 156°
2026-05-04 20:54 52.13389 21.14730 4262 ft 238 kts 155°
2026-05-04 20:54 52.11929 21.16007 3909 ft 238 kts 155°
2026-05-04 20:54 52.10475 21.17280 3540 ft 237 kts 155°
2026-05-04 20:54 52.09027 21.18546 3179 ft 236 kts 155°
2026-05-04 20:55 52.07563 21.19733 2985 ft 234 kts 166°
2026-05-04 20:55 52.05983 21.19971 2964 ft 226 kts 193°
2026-05-04 20:55 52.04556 21.19033 2976 ft 221 kts 219°
2026-05-04 20:55 52.03539 21.17208 2985 ft 219 kts 240°
2026-05-04 20:56 52.02842 21.15014 2988 ft 219 kts 244°
2026-05-04 20:56 52.02234 21.12759 2988 ft 218 kts 256°
2026-05-04 20:56 52.02237 21.10318 2986 ft 221 kts 287°
2026-05-04 20:56 52.03101 21.08256 2970 ft 227 kts 317°
2026-05-04 20:57 52.04454 21.06896 2768 ft 230 kts 331°
2026-05-04 20:57 52.05913 21.05844 2484 ft 228 kts 333°
2026-05-04 20:57 52.07335 21.04772 2182 ft 222 kts 330°
2026-05-04 20:57 52.08661 21.03614 1879 ft 207 kts 330°
2026-05-04 20:58 52.09852 21.02577 1698 ft 184 kts 329°
2026-05-04 20:58 52.10900 21.01665 1451 ft 157 kts 330°
2026-05-04 20:58 52.11793 21.00892 1169 ft 139 kts 330°
2026-05-04 20:58 52.12653 21.00135 998 ft 139 kts 330°
2026-05-04 20:59 52.13490 20.99394 825 ft 139 kts 330°
2026-05-04 20:59 52.14341 20.98660 631 ft 138 kts 330°
2026-05-04 20:59 52.15188 20.97922 458 ft 138 kts 330°
2026-05-04 20:59 52.16014 20.97200 353 ft 119 kts 329°
2026-05-04 21:00 52.16555 20.96728 346 ft 60 kts 331°
2026-05-04 21:00 52.16833 20.96518 345 ft 33 kts 352°
2026-05-04 21:00 52.17010 20.96514 353 ft 12 kts
2026-05-04 21:00 52.17024 20.96515 347 ft 2 kts
2026-05-04 21:01 52.17049 20.96518 344 ft 6 kts
2026-05-04 21:01 52.17090 20.96570 349 ft 10 kts 60°
2026-05-04 21:01 52.17128 20.96683 348 ft 13 kts 61°
2026-05-04 21:01 52.17161 20.96803 347 ft 10 kts 91°
2026-05-04 21:02 52.17109 20.96883 344 ft 12 kts 151°
2026-05-04 21:02 52.17032 20.96951 349 ft 14 kts 152°
2026-05-04 21:02 52.16943 20.97029 348 ft 15 kts 152°
2026-05-04 21:02 52.16865 20.97094 347 ft 8 kts 163°
2026-05-04 21:03 52.16836 20.97062 351 ft 6 kts 261°
2026-05-04 21:03 52.16837 20.97033 350 ft 0 kts 277°
2026-05-04 21:03 52.16838 20.97023 350 ft 3 kts 276°
2026-05-04 21:03 52.16840 20.96992 347 ft 2 kts 276°
2026-05-04 21:04 52.16840 20.96982 346 ft 0 kts 275°